sat.trackr.live / text

‹ back to catalog

ONEWEB-0531

NORAD 54146 · 2022-138AK

PAYLOAD ACTIVE UNKNOWN

§ Identity

Operator
Country
UK
Launch date
2022-10-22
Launch site
SRILR
Launch vehicle
Mass (kg)
RCS (m²)

Purposes: comms

External: N2YO · Heavens-Above · Gunter

§ Orbital elements

Epoch: 2026-05-25T03:03:11.750112Z

Period
109.03 min
Inclination
87.9173°
Eccentricity
0.0002296
Mean motion
13.20771572 rev/d
Perigee alt
1,180.0 km
Apogee alt
1,183.5 km
Semi-major
7,559.9 km
B*
-1.0708e-4
RAAN
279.0331°
Arg perigee
120.6678°
Mean anomaly
239.4681°
Rev number
17,626

§ Raw data

ONEWEB-05311 54146U 22138AK  26145.12721933 -.00000031  00000+0 -10708-3 0  99962 54146  87.9173 279.0331 0002296 120.6678 239.4681 13.20771572176261

JSON: /api/v1/satellites/54146 · /tle

For live sub-satellite position, see the globe view (requires WebGL).

§ Visibility from observer

Set your observer location to see the next 7 days of passes ≥ 10°. The values pass through the URL so the page stays shareable.

No JS? Fill the form by hand. The geolocation button needs JavaScript.